Year,Month,Day,Hour,Minute,Value (Times are PST for temperature in C)
2004,06,16,00,00,14.40
2004,06,16,00,01,14.30
2004,06,16,00,02,14.20
2004,06,16,00,03,14.20
2004,06,16,00,04,14.10
2004,06,16,00,05,14.10
2004,06,16,00,06,14.10
2004,06,16,00,07,14.00
2004,06,16,00,08,14.00
2004,06,16,00,09,14.00
2004,06,16,00,10,13.90
2004,06,16,00,11,13.80
2004,06,16,00,12,13.80
2004,06,16,00,13,13.70
2004,06,16,00,14,13.70
2004,06,16,00,15,13.70
2004,06,16,00,16,13.60
2004,06,16,00,17,13.60
2004,06,16,00,18,13.50
2004,06,16,00,19,13.50
2004,06,16,00,20,13.40
2004,06,16,00,21,13.40
2004,06,16,00,22,13.30
2004,06,16,00,23,13.30
2004,06,16,00,24,13.30
2004,06,16,00,25,13.30
2004,06,16,00,26,13.30
2004,06,16,00,27,13.20
2004,06,16,00,28,13.20
2004,06,16,00,29,13.10
2004,06,16,00,30,13.10
2004,06,16,00,31,13.10
2004,06,16,00,32,13.10
2004,06,16,00,33,13.20
2004,06,16,00,34,13.20
2004,06,16,00,35,13.10
2004,06,16,00,36,13.10
2004,06,16,00,37,13.10
2004,06,16,00,38,13.10
2004,06,16,00,39,13.10
2004,06,16,00,40,13.10
2004,06,16,00,41,13.10
2004,06,16,00,42,13.10
2004,06,16,00,43,13.00
2004,06,16,00,44,13.00
2004,06,16,00,45,12.90
2004,06,16,00,46,12.90
2004,06,16,00,47,12.80
2004,06,16,00,48,12.80
2004,06,16,00,49,12.80
2004,06,16,00,50,12.70
2004,06,16,00,51,12.70
2004,06,16,00,52,12.60
2004,06,16,00,53,12.60
2004,06,16,00,54,12.50
2004,06,16,00,55,12.50
2004,06,16,00,56,12.50
2004,06,16,00,57,12.50
2004,06,16,00,58,12.50
2004,06,16,00,59,12.50
2004,06,16,01,00,12.50
2004,06,16,01,01,12.50
2004,06,16,01,02,12.50
2004,06,16,01,03,12.50
2004,06,16,01,04,12.40
2004,06,16,01,05,12.30
2004,06,16,01,06,12.30
2004,06,16,01,07,12.30
2004,06,16,01,08,12.20
2004,06,16,01,09,12.20
2004,06,16,01,10,12.20
2004,06,16,01,11,12.10
2004,06,16,01,12,12.10
2004,06,16,01,13,12.10
2004,06,16,01,14,12.10
2004,06,16,01,15,12.10
2004,06,16,01,16,12.00
2004,06,16,01,17,11.90
2004,06,16,01,18,11.80
2004,06,16,01,19,11.80
2004,06,16,01,20,11.80
2004,06,16,01,21,11.90
2004,06,16,01,22,11.80
2004,06,16,01,23,11.80
2004,06,16,01,24,11.70
2004,06,16,01,25,11.70
2004,06,16,01,26,11.70
2004,06,16,01,27,11.60
2004,06,16,01,28,11.70
2004,06,16,01,29,11.70
2004,06,16,01,30,11.70
2004,06,16,01,31,11.80
2004,06,16,01,32,11.80
2004,06,16,01,33,11.80
2004,06,16,01,34,11.80
2004,06,16,01,35,11.80
2004,06,16,01,36,11.80
2004,06,16,01,37,11.80
2004,06,16,01,38,11.80
2004,06,16,01,39,11.90
2004,06,16,01,40,11.90
2004,06,16,01,41,11.90
2004,06,16,01,42,11.90
2004,06,16,01,43,11.90
2004,06,16,01,44,11.80
2004,06,16,01,45,11.80
2004,06,16,01,46,11.80
2004,06,16,01,47,11.80
2004,06,16,01,48,11.80
2004,06,16,01,49,11.80
2004,06,16,01,50,11.80
2004,06,16,01,51,11.80
2004,06,16,01,52,11.80
2004,06,16,01,53,11.80
2004,06,16,01,54,11.80
2004,06,16,01,55,11.70
2004,06,16,01,56,11.70
2004,06,16,01,57,11.70
2004,06,16,01,58,11.60
2004,06,16,01,59,11.60
2004,06,16,02,00,11.60
2004,06,16,02,01,11.50
2004,06,16,02,02,11.50
2004,06,16,02,03,11.60
2004,06,16,02,04,11.60
2004,06,16,02,05,11.60
2004,06,16,02,06,11.60
2004,06,16,02,07,11.40
2004,06,16,02,08,11.40
2004,06,16,02,09,11.40
2004,06,16,02,10,11.50
2004,06,16,02,11,11.60
2004,06,16,02,12,11.60
2004,06,16,02,13,11.60
2004,06,16,02,14,11.70
2004,06,16,02,15,11.70
2004,06,16,02,16,11.60
2004,06,16,02,17,11.60
2004,06,16,02,18,11.40
2004,06,16,02,19,11.40
2004,06,16,02,20,11.40
2004,06,16,02,21,11.40
2004,06,16,02,22,11.30
2004,06,16,02,23,11.30
2004,06,16,02,24,11.30
2004,06,16,02,25,11.30
2004,06,16,02,26,11.20
2004,06,16,02,27,11.20
2004,06,16,02,28,11.20
2004,06,16,02,29,11.20
2004,06,16,02,30,11.20
2004,06,16,02,31,11.10
2004,06,16,02,32,11.10
2004,06,16,02,33,11.10
2004,06,16,02,34,11.10
2004,06,16,02,35,11.10
2004,06,16,02,36,11.20
2004,06,16,02,37,11.20
2004,06,16,02,38,11.20
2004,06,16,02,39,11.10
2004,06,16,02,40,11.10
2004,06,16,02,41,11.10
2004,06,16,02,42,11.10
2004,06,16,02,43,11.10
2004,06,16,02,44,11.10
2004,06,16,02,45,11.10
2004,06,16,02,46,11.10
2004,06,16,02,47,11.10
2004,06,16,02,48,11.10
2004,06,16,02,49,11.10
2004,06,16,02,50,11.10
2004,06,16,02,51,11.10
2004,06,16,02,52,11.10
2004,06,16,02,53,11.10
2004,06,16,02,54,11.10
2004,06,16,02,55,11.10
2004,06,16,02,56,11.10
2004,06,16,02,57,11.10
2004,06,16,02,58,11.10
2004,06,16,02,59,11.10
2004,06,16,03,00,11.10
2004,06,16,03,01,11.10
2004,06,16,03,02,11.10
2004,06,16,03,03,11.00
2004,06,16,03,04,11.00
2004,06,16,03,05,10.90
2004,06,16,03,06,10.90
2004,06,16,03,07,10.90
2004,06,16,03,08,10.90
2004,06,16,03,09,10.80
2004,06,16,03,10,10.80
2004,06,16,03,11,10.80
2004,06,16,03,12,10.70
2004,06,16,03,13,10.60
2004,06,16,03,14,10.60
2004,06,16,03,15,10.60
2004,06,16,03,16,10.50
2004,06,16,03,17,10.50
2004,06,16,03,18,10.50
2004,06,16,03,19,10.50
2004,06,16,03,20,10.40
2004,06,16,03,21,10.40
2004,06,16,03,22,10.40
2004,06,16,03,23,10.50
2004,06,16,03,24,10.40
2004,06,16,03,25,10.50
2004,06,16,03,26,10.50
2004,06,16,03,27,10.40
2004,06,16,03,28,10.40
2004,06,16,03,29,10.40
2004,06,16,03,30,10.30
2004,06,16,03,31,10.30
2004,06,16,03,32,10.20
2004,06,16,03,33,10.30
2004,06,16,03,34,10.30
2004,06,16,03,35,10.30
2004,06,16,03,36,10.30
2004,06,16,03,37,10.30
2004,06,16,03,38,10.30
2004,06,16,03,39,10.30
2004,06,16,03,40,10.30
2004,06,16,03,41,10.30
2004,06,16,03,42,10.40
2004,06,16,03,43,10.40
2004,06,16,03,44,10.40
2004,06,16,03,45,10.30
2004,06,16,03,46,10.30
2004,06,16,03,47,10.30
2004,06,16,03,48,10.20
2004,06,16,03,49,10.30
2004,06,16,03,50,10.30
2004,06,16,03,51,10.30
2004,06,16,03,52,10.40
2004,06,16,03,53,10.30
2004,06,16,03,54,10.20
2004,06,16,03,55,10.10
2004,06,16,03,56,10.00
2004,06,16,03,57,9.90
2004,06,16,03,58,9.90
2004,06,16,03,59,9.80
2004,06,16,04,00,9.80
2004,06,16,04,01,9.80
2004,06,16,04,02,9.80
2004,06,16,04,03,9.80
2004,06,16,04,04,9.80
2004,06,16,04,05,9.90
2004,06,16,04,06,9.90
2004,06,16,04,07,9.90
2004,06,16,04,08,9.90
2004,06,16,04,09,9.90
2004,06,16,04,10,9.90
2004,06,16,04,11,10.00
2004,06,16,04,12,10.10
2004,06,16,04,13,10.10
2004,06,16,04,14,10.10
2004,06,16,04,15,10.10
2004,06,16,04,16,10.10
2004,06,16,04,17,10.20
2004,06,16,04,18,10.20
2004,06,16,04,19,10.30
2004,06,16,04,20,10.30
2004,06,16,04,21,10.30
2004,06,16,04,22,10.40
2004,06,16,04,23,10.40
2004,06,16,04,24,10.40
2004,06,16,04,25,10.40
2004,06,16,04,26,10.30
2004,06,16,04,27,10.20
2004,06,16,04,28,10.20
2004,06,16,04,29,10.20
2004,06,16,04,30,10.10
2004,06,16,04,31,10.20
2004,06,16,04,32,10.10
2004,06,16,04,33,10.10
2004,06,16,04,34,10.10
2004,06,16,04,35,10.00
2004,06,16,04,36,9.90
2004,06,16,04,37,9.80
2004,06,16,04,38,9.70
2004,06,16,04,39,9.70
2004,06,16,04,40,9.70
2004,06,16,04,41,9.70
2004,06,16,04,42,9.60
2004,06,16,04,43,9.60
2004,06,16,04,44,9.50
2004,06,16,04,45,9.60
2004,06,16,04,46,9.50
2004,06,16,04,47,9.50
2004,06,16,04,48,9.40
2004,06,16,04,49,9.40
2004,06,16,04,50,9.40
2004,06,16,04,51,9.40
2004,06,16,04,52,9.30
2004,06,16,04,53,9.40
2004,06,16,04,54,9.40
2004,06,16,04,55,9.40
2004,06,16,04,56,9.40
2004,06,16,04,57,9.50
2004,06,16,04,58,9.60
2004,06,16,04,59,9.60
2004,06,16,05,00,9.60
2004,06,16,05,01,9.60
2004,06,16,05,02,9.70
2004,06,16,05,03,9.70
2004,06,16,05,04,9.70
2004,06,16,05,05,9.70
2004,06,16,05,06,9.80
2004,06,16,05,07,9.80
2004,06,16,05,08,9.80
2004,06,16,05,09,9.80
2004,06,16,05,10,9.90
2004,06,16,05,11,9.90
2004,06,16,05,12,9.90
2004,06,16,05,13,9.80
2004,06,16,05,14,9.80
2004,06,16,05,15,9.80
2004,06,16,05,16,9.90
2004,06,16,05,17,9.90
2004,06,16,05,18,9.90
2004,06,16,05,19,9.90
2004,06,16,05,20,10.00
2004,06,16,05,21,10.10
2004,06,16,05,22,10.10
2004,06,16,05,23,10.10
2004,06,16,05,24,10.10
2004,06,16,05,25,10.10
2004,06,16,05,26,10.10
2004,06,16,05,27,10.10
2004,06,16,05,28,10.10
2004,06,16,05,29,10.10
2004,06,16,05,30,10.10
2004,06,16,05,31,10.20
2004,06,16,05,32,10.20
2004,06,16,05,33,10.20
2004,06,16,05,34,10.20
2004,06,16,05,35,10.20
2004,06,16,05,36,10.30
2004,06,16,05,37,10.30
2004,06,16,05,38,10.30
2004,06,16,05,39,10.40
2004,06,16,05,40,10.40
2004,06,16,05,41,10.40
2004,06,16,05,42,10.50
2004,06,16,05,43,10.60
2004,06,16,05,44,10.60
2004,06,16,05,45,10.60
2004,06,16,05,46,10.70
2004,06,16,05,47,10.70
2004,06,16,05,48,10.80
2004,06,16,05,49,10.80
2004,06,16,05,50,10.90
2004,06,16,05,51,11.00
2004,06,16,05,52,11.20
2004,06,16,05,53,11.30
2004,06,16,05,54,11.40
2004,06,16,05,55,11.40
2004,06,16,05,56,11.50
2004,06,16,05,57,11.60
2004,06,16,05,58,11.80
2004,06,16,05,59,11.90
2004,06,16,06,00,12.10
2004,06,16,06,01,12.20
2004,06,16,06,02,12.20
2004,06,16,06,03,12.30
2004,06,16,06,04,12.40
2004,06,16,06,05,12.50
2004,06,16,06,06,12.60
2004,06,16,06,07,12.70
2004,06,16,06,08,12.80
2004,06,16,06,09,12.80
2004,06,16,06,10,12.90
2004,06,16,06,11,12.90
2004,06,16,06,12,13.00
2004,06,16,06,13,13.00
2004,06,16,06,14,13.00
2004,06,16,06,15,13.10
2004,06,16,06,16,13.10
2004,06,16,06,17,13.20
2004,06,16,06,18,13.20
2004,06,16,06,19,13.20
2004,06,16,06,20,13.30
2004,06,16,06,21,13.30
2004,06,16,06,22,13.30
2004,06,16,06,23,13.40
2004,06,16,06,24,13.40
2004,06,16,06,25,13.50
2004,06,16,06,26,13.50
2004,06,16,06,27,13.60
2004,06,16,06,28,13.60
2004,06,16,06,29,13.70
2004,06,16,06,30,13.70
2004,06,16,06,31,13.70
2004,06,16,06,32,13.70
2004,06,16,06,33,13.80
2004,06,16,06,34,13.80
2004,06,16,06,35,13.80
2004,06,16,06,36,13.90
2004,06,16,06,37,13.90
2004,06,16,06,38,13.90
2004,06,16,06,39,14.00
2004,06,16,06,40,14.00
2004,06,16,06,41,14.00
2004,06,16,06,42,14.10
2004,06,16,06,43,14.10
2004,06,16,06,44,14.10
2004,06,16,06,45,14.10
2004,06,16,06,46,14.20
2004,06,16,06,47,14.20
2004,06,16,06,48,14.20
2004,06,16,06,49,14.20
2004,06,16,06,50,14.20
2004,06,16,06,51,14.20
2004,06,16,06,52,14.20
2004,06,16,06,53,14.20
2004,06,16,06,54,14.20
2004,06,16,06,55,14.20
2004,06,16,06,56,14.20
2004,06,16,06,57,14.20
2004,06,16,06,58,14.20
2004,06,16,06,59,14.20
2004,06,16,07,00,14.20
2004,06,16,07,01,14.20
2004,06,16,07,02,14.20
2004,06,16,07,03,14.20
2004,06,16,07,04,14.20
2004,06,16,07,05,14.20
2004,06,16,07,06,14.20
2004,06,16,07,07,14.20
2004,06,16,07,08,14.20
2004,06,16,07,09,14.20
2004,06,16,07,10,14.20
2004,06,16,07,11,14.20
2004,06,16,07,12,14.20
2004,06,16,07,13,14.30
2004,06,16,07,14,14.40
2004,06,16,07,15,14.40
2004,06,16,07,16,14.40
2004,06,16,07,17,14.50
2004,06,16,07,18,14.50
2004,06,16,07,19,14.50
2004,06,16,07,20,14.50
2004,06,16,07,21,14.50
2004,06,16,07,22,14.50
2004,06,16,07,23,14.60
2004,06,16,07,24,14.60
2004,06,16,07,25,14.60
2004,06,16,07,26,14.60
2004,06,16,07,27,14.60
2004,06,16,07,28,14.70
2004,06,16,07,29,14.70
2004,06,16,07,30,14.70
2004,06,16,07,31,14.80
2004,06,16,07,32,14.80
2004,06,16,07,33,14.80
2004,06,16,07,34,14.80
2004,06,16,07,35,14.90
2004,06,16,07,36,14.90
2004,06,16,07,37,14.90
2004,06,16,07,38,15.00
2004,06,16,07,39,15.00
2004,06,16,07,40,15.00
2004,06,16,07,41,15.00
2004,06,16,07,42,15.00
2004,06,16,07,43,15.00
2004,06,16,07,44,15.00
2004,06,16,07,45,15.10
2004,06,16,07,46,15.10
2004,06,16,07,47,15.10
2004,06,16,07,48,15.10
2004,06,16,07,49,15.10
2004,06,16,07,50,15.20
2004,06,16,07,51,15.20
2004,06,16,07,52,15.20
2004,06,16,07,53,15.30
2004,06,16,07,54,15.30
2004,06,16,07,55,15.30
2004,06,16,07,56,15.30
2004,06,16,07,57,15.40
2004,06,16,07,58,15.40
2004,06,16,07,59,15.40
2004,06,16,08,00,15.50
2004,06,16,08,01,15.50
2004,06,16,08,02,15.50
2004,06,16,08,03,15.50
2004,06,16,08,04,15.50
2004,06,16,08,05,15.60
2004,06,16,08,06,15.70
2004,06,16,08,07,15.70
2004,06,16,08,08,15.80
2004,06,16,08,09,15.80
2004,06,16,08,10,15.80
2004,06,16,08,11,15.80
2004,06,16,08,12,15.80
2004,06,16,08,13,15.70
2004,06,16,08,14,15.80
2004,06,16,08,15,15.80
2004,06,16,08,16,15.80
2004,06,16,08,17,15.80
2004,06,16,08,18,15.80
2004,06,16,08,19,15.80
2004,06,16,08,20,15.80
2004,06,16,08,21,15.90
2004,06,16,08,22,15.90
2004,06,16,08,23,16.00
2004,06,16,08,24,16.10
2004,06,16,08,25,16.10
2004,06,16,08,26,16.10
2004,06,16,08,27,16.10
2004,06,16,08,28,16.20
2004,06,16,08,29,16.20
2004,06,16,08,30,16.20
2004,06,16,08,31,16.20
2004,06,16,08,32,16.20
2004,06,16,08,33,16.30
2004,06,16,08,34,16.30
2004,06,16,08,35,16.40
2004,06,16,08,36,16.40
2004,06,16,08,37,16.50
2004,06,16,08,38,16.50
2004,06,16,08,39,16.50
2004,06,16,08,40,16.40
2004,06,16,08,41,16.40
2004,06,16,08,42,16.40
2004,06,16,08,43,16.40
2004,06,16,08,44,16.50
2004,06,16,08,45,16.50
2004,06,16,08,46,16.40
2004,06,16,08,47,16.50
2004,06,16,08,48,16.50
2004,06,16,08,49,16.60
2004,06,16,08,50,16.60
2004,06,16,08,51,16.60
2004,06,16,08,52,16.70
2004,06,16,08,53,16.70
2004,06,16,08,54,16.70
2004,06,16,08,55,16.70
2004,06,16,08,56,16.70
2004,06,16,08,57,16.70
2004,06,16,08,58,16.70
2004,06,16,08,59,16.80
2004,06,16,09,00,16.80
2004,06,16,09,01,16.80
2004,06,16,09,02,16.90
2004,06,16,09,03,16.90
2004,06,16,09,04,17.00
2004,06,16,09,05,17.10
2004,06,16,09,06,17.20
2004,06,16,09,07,17.30
2004,06,16,09,08,17.30
2004,06,16,09,09,17.20
2004,06,16,09,10,17.10
2004,06,16,09,11,17.00
2004,06,16,09,12,17.00
2004,06,16,09,13,17.00
2004,06,16,09,14,17.10
2004,06,16,09,15,17.10
2004,06,16,09,16,17.20
2004,06,16,09,17,17.10
2004,06,16,09,18,17.10
2004,06,16,09,19,17.10
2004,06,16,09,20,17.20
2004,06,16,09,21,17.30
2004,06,16,09,22,17.30
2004,06,16,09,23,17.30
2004,06,16,09,24,17.30
2004,06,16,09,25,17.40
2004,06,16,09,26,17.30
2004,06,16,09,27,17.40
2004,06,16,09,28,17.40
2004,06,16,09,29,17.50
2004,06,16,09,30,17.60
2004,06,16,09,31,17.70
2004,06,16,09,32,17.70
2004,06,16,09,33,17.80
2004,06,16,09,34,17.70
2004,06,16,09,35,17.60
2004,06,16,09,36,17.60
2004,06,16,09,37,17.60
2004,06,16,09,38,17.60
2004,06,16,09,39,17.60
2004,06,16,09,40,17.50
2004,06,16,09,41,17.50
2004,06,16,09,42,17.50
2004,06,16,09,43,17.60
2004,06,16,09,44,17.70
2004,06,16,09,45,17.70
2004,06,16,09,46,17.70
2004,06,16,09,47,17.70
2004,06,16,09,48,17.60
2004,06,16,09,49,17.60
2004,06,16,09,50,17.60
2004,06,16,09,51,17.70
2004,06,16,09,52,17.80
2004,06,16,09,53,17.90
2004,06,16,09,54,17.90
2004,06,16,09,55,17.90
2004,06,16,09,56,17.90
2004,06,16,09,57,17.90
2004,06,16,09,58,17.90
2004,06,16,09,59,17.90
2004,06,16,10,00,17.90
2004,06,16,10,01,17.90
2004,06,16,10,02,17.90
2004,06,16,10,03,17.90
2004,06,16,10,04,17.90
2004,06,16,10,05,18.00
2004,06,16,10,06,18.10
2004,06,16,10,07,18.30
2004,06,16,10,08,18.30
2004,06,16,10,09,18.30
2004,06,16,10,10,18.40
2004,06,16,10,11,18.40
2004,06,16,10,12,18.50
2004,06,16,10,13,18.40
2004,06,16,10,14,18.40
2004,06,16,10,15,18.40
2004,06,16,10,16,18.40
2004,06,16,10,17,18.30
2004,06,16,10,18,18.20
2004,06,16,10,19,18.20
2004,06,16,10,20,18.20
2004,06,16,10,21,18.20
2004,06,16,10,22,18.30
2004,06,16,10,23,18.30
2004,06,16,10,24,18.40
2004,06,16,10,25,18.40
2004,06,16,10,26,18.30
2004,06,16,10,27,18.40
2004,06,16,10,28,18.50
2004,06,16,10,29,18.50
2004,06,16,10,30,18.60
2004,06,16,10,31,18.60
2004,06,16,10,32,18.60
2004,06,16,10,33,18.50
2004,06,16,10,34,18.60
2004,06,16,10,35,18.70
2004,06,16,10,36,18.70
2004,06,16,10,37,18.70
2004,06,16,10,38,18.90
2004,06,16,10,39,19.00
2004,06,16,10,40,18.90
2004,06,16,10,41,18.90
2004,06,16,10,42,19.00
2004,06,16,10,43,19.10
2004,06,16,10,44,19.20
2004,06,16,10,45,19.20
2004,06,16,10,46,19.40
2004,06,16,10,47,19.40
2004,06,16,10,48,19.40
2004,06,16,10,49,19.30
2004,06,16,10,50,19.20
2004,06,16,10,51,19.20
2004,06,16,10,52,19.30
2004,06,16,10,53,19.40
2004,06,16,10,54,19.30
2004,06,16,10,55,19.30
2004,06,16,10,56,19.20
2004,06,16,10,57,19.20
2004,06,16,10,58,19.40
2004,06,16,10,59,19.50
2004,06,16,11,00,19.50
2004,06,16,11,01,19.50
2004,06,16,11,02,19.50
2004,06,16,11,03,19.60
2004,06,16,11,04,19.60
2004,06,16,11,05,19.50
2004,06,16,11,06,19.50
2004,06,16,11,07,19.50
2004,06,16,11,08,19.60
2004,06,16,11,09,19.80
2004,06,16,11,10,19.90
2004,06,16,11,11,19.80
2004,06,16,11,12,19.70
2004,06,16,11,13,19.60
2004,06,16,11,14,19.40
2004,06,16,11,15,19.20
2004,06,16,11,16,19.00
2004,06,16,11,17,19.10
2004,06,16,11,18,19.10
2004,06,16,11,19,19.10
2004,06,16,11,20,19.20
2004,06,16,11,21,19.30
2004,06,16,11,22,19.30
2004,06,16,11,23,19.30
2004,06,16,11,24,19.30
2004,06,16,11,25,19.30
2004,06,16,11,26,19.20
2004,06,16,11,27,19.10
2004,06,16,11,28,18.90
2004,06,16,11,29,18.90
2004,06,16,11,30,18.70
2004,06,16,11,31,18.60
2004,06,16,11,32,18.60
2004,06,16,11,33,18.70
2004,06,16,11,34,18.70
2004,06,16,11,35,18.60
2004,06,16,11,36,18.50
2004,06,16,11,37,18.50
2004,06,16,11,38,18.50
2004,06,16,11,39,18.40
2004,06,16,11,40,18.50
2004,06,16,11,41,18.60
2004,06,16,11,42,18.90
2004,06,16,11,43,19.00
2004,06,16,11,44,19.10
2004,06,16,11,45,19.10
2004,06,16,11,46,19.00
2004,06,16,11,47,18.90
2004,06,16,11,48,18.90
2004,06,16,11,49,18.90
2004,06,16,11,50,19.00
2004,06,16,11,51,19.20
2004,06,16,11,52,19.30
2004,06,16,11,53,19.40
2004,06,16,11,54,19.40
2004,06,16,11,55,19.50
2004,06,16,11,56,19.50
2004,06,16,11,57,19.60
2004,06,16,11,58,19.70
2004,06,16,11,59,19.50
2004,06,16,12,00,19.30
2004,06,16,12,01,19.30
2004,06,16,12,02,19.30
2004,06,16,12,03,19.20
2004,06,16,12,04,19.30
2004,06,16,12,05,19.40
2004,06,16,12,06,19.40
2004,06,16,12,07,19.40
2004,06,16,12,08,19.40
2004,06,16,12,09,19.60
2004,06,16,12,10,19.80
2004,06,16,12,11,19.90
2004,06,16,12,12,19.90
2004,06,16,12,13,19.90
2004,06,16,12,14,19.80
2004,06,16,12,15,19.60
2004,06,16,12,16,19.50
2004,06,16,12,17,19.60
2004,06,16,12,18,19.70
2004,06,16,12,19,19.90
2004,06,16,12,20,20.00
2004,06,16,12,21,19.90
2004,06,16,12,22,19.90
2004,06,16,12,23,19.90
2004,06,16,12,24,19.90
2004,06,16,12,25,19.80
2004,06,16,12,26,19.70
2004,06,16,12,27,19.50
2004,06,16,12,28,19.50
2004,06,16,12,29,19.50
2004,06,16,12,30,19.60
2004,06,16,12,31,19.70
2004,06,16,12,32,19.80
2004,06,16,12,33,20.10
2004,06,16,12,34,20.20
2004,06,16,12,35,20.20
2004,06,16,12,36,20.10
2004,06,16,12,37,20.20
2004,06,16,12,38,20.40
2004,06,16,12,39,20.60
2004,06,16,12,40,20.70
2004,06,16,12,41,20.80
2004,06,16,12,42,21.00
2004,06,16,12,43,21.00
2004,06,16,12,44,21.00
2004,06,16,12,45,21.10
2004,06,16,12,46,21.20
2004,06,16,12,47,21.20
2004,06,16,12,48,21.20
2004,06,16,12,49,21.20
2004,06,16,12,50,21.20
2004,06,16,12,51,21.00
2004,06,16,12,52,21.00
2004,06,16,12,53,20.70
2004,06,16,12,54,20.50
2004,06,16,12,55,20.40
2004,06,16,12,56,20.20
2004,06,16,12,57,20.10
2004,06,16,12,58,20.20
2004,06,16,12,59,20.20
2004,06,16,13,00,20.20
2004,06,16,13,01,20.20
2004,06,16,13,02,20.20
2004,06,16,13,03,20.20
2004,06,16,13,04,20.30
2004,06,16,13,05,20.40
2004,06,16,13,06,20.50
2004,06,16,13,07,20.20
2004,06,16,13,08,20.10
2004,06,16,13,09,20.00
2004,06,16,13,10,19.90
2004,06,16,13,11,19.80
2004,06,16,13,12,19.90
2004,06,16,13,13,19.90
2004,06,16,13,14,19.90
2004,06,16,13,15,19.90
2004,06,16,13,16,19.90
2004,06,16,13,17,20.00
2004,06,16,13,18,20.30
2004,06,16,13,19,20.20
2004,06,16,13,20,20.20
2004,06,16,13,21,20.10
2004,06,16,13,22,20.20
2004,06,16,13,23,20.40
2004,06,16,13,24,20.50
2004,06,16,13,25,20.60
2004,06,16,13,26,20.90
2004,06,16,13,27,20.90
2004,06,16,13,28,20.80
2004,06,16,13,29,20.70
2004,06,16,13,30,20.80
2004,06,16,13,31,20.70
2004,06,16,13,32,20.70
2004,06,16,13,33,20.70
2004,06,16,13,34,20.70
2004,06,16,13,35,20.70
2004,06,16,13,36,20.80
2004,06,16,13,37,21.10
2004,06,16,13,38,21.10
2004,06,16,13,39,21.00
2004,06,16,13,40,20.80
2004,06,16,13,41,20.70
2004,06,16,13,42,20.60
2004,06,16,13,43,20.50
2004,06,16,13,44,20.70
2004,06,16,13,45,20.80
2004,06,16,13,46,20.90
2004,06,16,13,47,20.90
2004,06,16,13,48,21.00
2004,06,16,13,49,21.00
2004,06,16,13,50,21.00
2004,06,16,13,51,21.00
2004,06,16,13,52,20.90
2004,06,16,13,53,20.80
2004,06,16,13,54,20.90
2004,06,16,13,55,20.90
2004,06,16,13,56,20.90
2004,06,16,13,57,20.80
2004,06,16,13,58,20.90
2004,06,16,13,59,21.00
2004,06,16,14,00,21.10
2004,06,16,14,01,21.10
2004,06,16,14,02,20.90
2004,06,16,14,03,20.90
2004,06,16,14,04,21.00
2004,06,16,14,05,21.20
2004,06,16,14,06,21.30
2004,06,16,14,07,21.40
2004,06,16,14,08,21.50
2004,06,16,14,09,21.60
2004,06,16,14,10,21.50
2004,06,16,14,11,21.60
2004,06,16,14,12,21.70
2004,06,16,14,13,21.80
2004,06,16,14,14,22.00
2004,06,16,14,15,22.00
2004,06,16,14,16,22.10
2004,06,16,14,17,22.10
2004,06,16,14,18,21.90
2004,06,16,14,19,21.70
2004,06,16,14,20,21.80
2004,06,16,14,21,21.90
2004,06,16,14,22,22.00
2004,06,16,14,23,22.20
2004,06,16,14,24,22.40
2004,06,16,14,25,22.50
2004,06,16,14,26,22.50
2004,06,16,14,27,22.40
2004,06,16,14,28,22.30
2004,06,16,14,29,22.10
2004,06,16,14,30,22.20
2004,06,16,14,31,22.30
2004,06,16,14,32,22.30
2004,06,16,14,33,22.40
2004,06,16,14,34,22.50
2004,06,16,14,35,22.70
2004,06,16,14,36,22.80
2004,06,16,14,37,22.60
2004,06,16,14,38,22.50
2004,06,16,14,39,22.50
2004,06,16,14,40,22.50
2004,06,16,14,41,22.40
2004,06,16,14,42,22.20
2004,06,16,14,43,22.20
2004,06,16,14,44,22.20
2004,06,16,14,45,22.30
2004,06,16,14,46,22.40
2004,06,16,14,47,22.30
2004,06,16,14,48,22.30
2004,06,16,14,49,22.10
2004,06,16,14,50,22.00
2004,06,16,14,51,21.90
2004,06,16,14,52,21.80
2004,06,16,14,53,21.90
2004,06,16,14,54,21.70
2004,06,16,14,55,21.50
2004,06,16,14,56,21.30
2004,06,16,14,57,21.40
2004,06,16,14,58,21.40
2004,06,16,14,59,21.40
2004,06,16,15,00,21.60
2004,06,16,15,01,21.70
2004,06,16,15,02,21.80
2004,06,16,15,03,21.90
2004,06,16,15,04,21.90
2004,06,16,15,05,21.80
2004,06,16,15,06,21.80
2004,06,16,15,07,22.00
2004,06,16,15,08,22.10
2004,06,16,15,09,22.10
2004,06,16,15,10,22.00
2004,06,16,15,11,21.90
2004,06,16,15,12,21.90
2004,06,16,15,13,22.00
2004,06,16,15,14,22.30
2004,06,16,15,15,22.50
2004,06,16,15,16,22.60
2004,06,16,15,17,22.60
2004,06,16,15,18,22.60
2004,06,16,15,19,22.70
2004,06,16,15,20,23.00
2004,06,16,15,21,23.10
2004,06,16,15,22,23.20
2004,06,16,15,23,23.20
2004,06,16,15,24,23.10
2004,06,16,15,25,23.10
2004,06,16,15,26,23.00
2004,06,16,15,27,22.90
2004,06,16,15,28,22.90
2004,06,16,15,29,22.90
2004,06,16,15,30,22.90
2004,06,16,15,31,22.90
2004,06,16,15,32,23.00
2004,06,16,15,33,22.90
2004,06,16,15,34,22.90
2004,06,16,15,35,22.80
2004,06,16,15,36,22.70
2004,06,16,15,37,22.60
2004,06,16,15,38,22.70
2004,06,16,15,39,22.90
2004,06,16,15,40,23.10
2004,06,16,15,41,23.20
2004,06,16,15,42,23.50
2004,06,16,15,43,23.70
2004,06,16,15,44,23.60
2004,06,16,15,45,23.50
2004,06,16,15,46,23.40
2004,06,16,15,47,23.40
2004,06,16,15,48,23.50
2004,06,16,15,49,23.60
2004,06,16,15,50,23.70
2004,06,16,15,51,23.70
2004,06,16,15,52,23.80
2004,06,16,15,53,23.90
2004,06,16,15,54,23.90
2004,06,16,15,55,24.00
2004,06,16,15,56,24.20
2004,06,16,15,57,24.30
2004,06,16,15,58,24.30
2004,06,16,15,59,24.30
2004,06,16,16,00,24.40
2004,06,16,16,01,24.50
2004,06,16,16,02,24.40
2004,06,16,16,03,24.40
2004,06,16,16,04,24.40
2004,06,16,16,05,24.50
2004,06,16,16,06,24.50
2004,06,16,16,07,24.50
2004,06,16,16,08,24.50
2004,06,16,16,09,24.50
2004,06,16,16,10,24.50
2004,06,16,16,11,24.60
2004,06,16,16,12,24.50
2004,06,16,16,13,24.60
2004,06,16,16,14,24.70
2004,06,16,16,15,24.60
2004,06,16,16,16,24.50
2004,06,16,16,17,24.40
2004,06,16,16,18,24.40
2004,06,16,16,19,24.30
2004,06,16,16,20,24.40
2004,06,16,16,21,24.40
2004,06,16,16,22,24.30
2004,06,16,16,23,24.30
2004,06,16,16,24,24.50
2004,06,16,16,25,24.50
2004,06,16,16,26,24.60
2004,06,16,16,27,24.60
2004,06,16,16,28,24.60
2004,06,16,16,29,24.60
2004,06,16,16,30,24.60
2004,06,16,16,31,24.70
2004,06,16,16,32,24.70
2004,06,16,16,33,24.80
2004,06,16,16,34,24.90
2004,06,16,16,35,24.90
2004,06,16,16,36,24.90
2004,06,16,16,37,24.90
2004,06,16,16,38,25.00
2004,06,16,16,39,25.20
2004,06,16,16,40,25.40
2004,06,16,16,41,25.50
2004,06,16,16,42,25.60
2004,06,16,16,43,25.50
2004,06,16,16,44,25.50
2004,06,16,16,45,25.70
2004,06,16,16,46,25.70
2004,06,16,16,47,25.70
2004,06,16,16,48,25.80
2004,06,16,16,49,25.70
2004,06,16,16,50,25.50
2004,06,16,16,51,25.30
2004,06,16,16,52,25.30
2004,06,16,16,53,25.40
2004,06,16,16,54,25.40
2004,06,16,16,55,25.50
2004,06,16,16,56,25.30
2004,06,16,16,57,25.20
2004,06,16,16,58,25.20
2004,06,16,16,59,25.20
2004,06,16,17,00,25.10
2004,06,16,17,01,25.00
2004,06,16,17,02,25.10
2004,06,16,17,03,25.10
2004,06,16,17,04,25.10
2004,06,16,17,05,25.10
2004,06,16,17,06,25.00
2004,06,16,17,07,25.00
2004,06,16,17,08,24.80
2004,06,16,17,09,24.50
2004,06,16,17,10,24.30
2004,06,16,17,11,24.20
2004,06,16,17,12,24.10
2004,06,16,17,13,24.00
2004,06,16,17,14,24.10
2004,06,16,17,15,24.10
2004,06,16,17,16,24.10
2004,06,16,17,17,24.30
2004,06,16,17,18,24.30
2004,06,16,17,19,24.20
2004,06,16,17,20,24.10
2004,06,16,17,21,24.10